{"data":{"norad_id":52621,"epoch":"2026-09-19T22:59:32.697312Z","epoch_age_seconds":140876,"freshness":"FRESH","line1":"1 52621U 22052Z   26262.95801733  .00000077  00000+0  13125-4 0  9990","line2":"2 52621  53.1592 105.2327 0001026 102.7037 257.4081 15.35397076240472","mean_motion":15.35397076,"eccentricity":0.0001026,"inclination_deg":53.1592,"raan_deg":105.2327,"arg_perigee_deg":102.7037,"mean_anomaly_deg":257.4081,"bstar":1.3125e-5,"rev_number":24047,"period_min":93.786814011101,"perigee_km":459.03975775133,"apogee_km":460.44289038343,"semimajor_km":6837.8783240674,"source":"CELESTRAK","updated_at":"2026-09-21T09:00:32.649495Z"}}